Regional Weather Roundup
Issued by NWS

Home | Current Version | Previous Version | Text Only | Print | Product List | Glossary Off
Versions: 1 2 3 4 5 6 7 8 9 10 11 12 13 14 15 16 17 18 19 20 21 22 23 24 25 26 27 28 29 30 31 32 33 34 35 36 37 38 39 40 41 42 43 44 45 46 47 48 49 50

279
ASUS43 KMPX 260310
RWRMN
WEATHER ROUNDUP FOR MINNESOTA
NATIONAL WEATHER SERVICE TWIN CITIES/CHANHASSEN MN
1000 PM CDT SUN SEP 25 2016


NOTE: "FAIR" INDICATES FEW OR NO CLOUDS BELOW 12,000 FEET WITH NO
SIGNIFICANT WEATHER AND/OR OBSTRUCTIONS TO VISIBILITY. N/A MEANS
CURRENT SKY AND/OR WEATHER CONDITIONS ARE NOT AVAILABLE.

MNZ060>063-068>070-260400-
   Twin Cities Metro

CITY           SKY/WX    TMP DP  RH WIND       PRES   REMARKS
TWIN CITIES    CLEAR     58  46  64 W12       29.98S
ST PAUL        PTCLDY    57  46  66 W12       29.98S
CRYSTAL        CLEAR     57  44  62 W10       29.98R
BLAINE         CLEAR     57  46  67 W9        29.97S
LAKEVILLE      MOCLDY    55  48  76 W13G24    29.99F
EDEN PRAIRIE   PTCLDY    57  47  69 W3        29.98S
LAKEVILLE      MOCLDY    55  48  76 W13G24    29.99F
SOUTH ST PAUL  CLEAR     57  46  66 W7        29.98S
LAKE ELMO      FAIR      55  45  67 W10       29.99S
$$
MNZ001>005-007-008-013>017-022>024-027-028-260400-
   Northwest Minnesota

CITY           SKY/WX    TMP DP  RH WIND       PRES   REMARKS
BEMIDJI        DRIZZLE   48  46  93 W20G31    29.85F
HALLOCK        LGT RAIN  54  50  87 NW6       29.90R
ROSEAU         LGT RAIN  52  46  82 NW17G24   29.81R
WARROAD        LGT RAIN  50  46  87 W16G28    29.78R
CROOKSTON      LGT RAIN  50  50 100 N13       29.94S
FOSSTON        LGT RAIN  46  46 100 W15       29.92S
DETROIT LAKES  LGT RAIN  50  45  81 NW15G21   29.97S
MOORHEAD       LGT RAIN  55  45  67 NW14G29   29.99S
PARK RAPIDS    LGT RAIN  50  45  83 NW16      29.92S
MAHNOMEN       DRIZZLE   49  46  87 NW20G25   29.94S
$$
MNZ006-009>011-018-025>026-260400-
   North Central Minnesota

CITY           SKY/WX    TMP DP  RH WIND       PRES   REMARKS
BAUDETTE       LGT RAIN  51  49  92 W20G28    29.73S
FLAG ISLAND    RAIN      52  50  93 NW21      29.71S
INTL FALLS     CLOUDY    52  50  93 W12G18    29.68F FOG
WASKISH        DRIZZLE   52  50  93 W20G31    29.77F
BIG FORK       DRIZZLE   52  48  87 W8        29.76F
LONGVILLE      DRIZZLE   48  46  93 W15G24    29.86
GRAND RAPIDS   LGT RAIN  50  48  93 W13G18    29.82F FOG
CRANE LAKE     CLOUDY    52  50  93 SW5       29.71F FOG
COOK           CLOUDY    52  48  87 W9G20     29.74F
WALKER         DRIZZLE   47  45  91 W17G28    29.87S
$$
MNZ012-019>021-037-260400-
   Northeast Minnesota

CITY           SKY/WX    TMP DP  RH WIND       PRES   REMARKS
DULUTH         LGT RAIN  52  50  93 W17G24    29.80S
ELY            CLOUDY    52  50  93 W10G20    29.72F
HIBBING        CLOUDY    51  48  89 W10       29.77F
EVELETH        CLOUDY    53  47  79 W15G23    29.77F
DULUTH HARBOR  CLOUDY    57  52  82 W15G30    29.82S
TWO HARBORS    CLOUDY    57  52  82 W10G18    29.76S
SILVER BAY     CLOUDY    57  52  82 W6        29.73F
GRAND MARAIS     N/A     59  58  96 W7        29.71F
G MARAIS ARPRT CLOUDY    54  48  82 S6        29.73F
$$
MNZ029>031-032-039>041-046>048-054>057-064-260400-
   West Central Minnesota

CITY           SKY/WX    TMP DP  RH WIND       PRES   REMARKS
FERGUS FALLS   CLOUDY    54  45  71 NW12G21   30.01F
MORRIS         MOCLDY    55  39  54 W12G20    30.02S
ALEXANDRIA     CLOUDY    53  44  71 NW16G22   30.01F
ELBOW LAKE     CLOUDY    53  45  75 W6        30.02S
GLENWOOD       CLOUDY    52  46  82 NW9       30.02S
APPLETON       MOCLDY    55  39  54 W12       30.04S
BENSON         PTCLDY    52  37  58 W10       30.03S
MADISON          N/A     55  41  58 W9        30.07S
WILLMAR        FAIR      55  43  62 W12       30.04S
$$
MNZ033>034-036-042>043-049>051-058-059-260400-
   Central Minnesota

CITY           SKY/WX    TMP DP  RH WIND       PRES   REMARKS
ST CLOUD       PTCLDY    53  44  71 W14       29.98R
SAUK CENTRE    MOCLDY    52  43  72 W9G18     30.00S
PAYNESVILLE    PTCLDY    48  48 100 W6        30.03R
AITKIN         CLOUDY    55  43  62 W10G18    29.87S
PINE RIVER     DRIZZLE   50  45  81 W10G23    29.93S
BRAINERD       CLOUDY    52  42  69 W20G33    29.92S
STAPLES        CLOUDY    50  45  81 W13G20    29.95S
LONG PRAIRIE   CLOUDY    52  43  71 W12G20    29.99F
LITTLE FALLS   CLOUDY    54  41  62 W13G25    29.96F
LITCHFIELD     CLEAR     55  46  71 NW3       30.02R
BUFFALO        CLEAR     54  46  74 W6        30.01R
MAPLE LAKE     CLEAR     54  48  81 W6        30.01R
HUTCHINSON     CLOUDY    54  45  73 SW7       30.03S
$$
MNZ037-044-045-052-053-260400-
   East Central Minnesota

CITY           SKY/WX    TMP DP  RH WIND       PRES   REMARKS
PRINCETON      CLEAR     54  45  71 W8        29.96S
MORA           CLEAR     50  41  71 W8        29.94S
CAMBRIDGE      CLEAR     55  43  62 W10       29.94S
MOOSE LAKE     CLOUDY    54  45  71 W8G16     29.85S
HINCKLEY       CLOUDY    54  46  76 W13G21    29.90S
CLOQUET        CLOUDY    54  46  76 W12       29.83S
MCGREGOR       CLOUDY    52  45  76 W9G21     29.87S
$$
MNZ071>073-080-081-089-090-097-098-260400-
   Southwest Minnesota

CITY           SKY/WX    TMP DP  RH WIND       PRES   REMARKS
MONTEVIDEO     PTCLDY    54  39  58 NW8       30.07S
GRANITE FALLS  CLEAR     52  43  71 SW9       30.08S
CANBY          CLEAR     55  39  54 NW12      30.11S
MARSHALL       CLEAR     54  40  59 W14       30.10R
REDWOOD FALLS  CLEAR     55  40  56 W12       30.06R
OLIVIA         CLEAR     54  43  66 W10       30.04S
PIPESTONE      CLEAR     54  39  58 W5        30.14S
WINDOM         CLEAR     54  43  66 W8        30.11R
WORTHINGTON    PTCLDY    51  41  68 W10       30.14R
JACKSON        MOCLDY    55  39  54 W10       30.12R
TRACY          CLEAR     55  42  62 W6        30.11R
SLAYTON        PTCLDY    52  41  66 W9        30.13R
$$
MNZ065>067-074>077-082>085-091>093-260400-
   South Central Minnesota

CITY           SKY/WX    TMP DP  RH WIND       PRES   REMARKS
MANKATO        CLEAR     57  44  62 W14       30.05R
NEW ULM        CLEAR     54  43  66 W8        30.06R
ST JAMES       PTCLDY    55  43  62 W10       30.09R
FAIRMONT       CLEAR     56  43  61 W10       30.10R
GLENCOE        CLEAR     55  48  76 W6        30.01S
FARIBAULT      CLEAR     55  48  76 W6        30.02S
OWATONNA       CLEAR     54  48  82 SW6       30.03S
WASECA         CLEAR     54  46  76 W10       30.05S
ALBERT LEA     CLEAR     55  48  76 W5        30.05S
$$
MNZ078>079-086>088-094>096-260400-
   Southeast Minnesota

CITY           SKY/WX    TMP DP  RH WIND       PRES   REMARKS
ROCHESTER      CLEAR     54  51  90 W8        30.02S
RED WING       PTCLDY    57  46  67 NW8       29.98R
STANTON        MOCLDY    56  49  75 W5        29.99S
DODGE CENTER   CLEAR     52  48  87 W7        30.03R
WINONA         CLOUDY    61  50  67 W14G22    29.98S
AUSTIN         MOCLDY    55  50  82 W7        30.04S
PRESTON        CLEAR     54  49  85 W9        30.03S
$$
ABBREVIATIONS USED IN REMARKS
   TC - TEMPERATURES IN CELSIUS
  WCI - WIND CHILL INDEX
   HX - HEAT INDEX
  VSB - VISIBILITY
$$




USA.gov is the U.S. government's official web portal to all federal, state and local government web resources and services.